GW4034 Weather Reports


Display with metric or nautical units.
time (UTC)temp
F
wind
direction
speed
MPH
gust
MPH
rain 1hr
in
rain 24hr
in
rain mn
in
humidity
%
barometer
mb
20260507235808 57 289 0.0 0.0 0.00 0.16 0.16 44 1012.8
20260507235307 59 288 1.0 1.0 0.00 0.16 0.16 41 1012.8
20260507234803 59 288 1.0 1.0 0.00 0.16 0.16 41 1012.8
20260507234259 59 318 1.0 2.0 0.00 0.16 0.16 40 1012.7
20260507233755 59 321 1.0 2.0 0.00 0.16 0.16 40 1012.5
20260507233254 59 347 2.0 2.0 0.00 0.16 0.16 41 1012.6
20260507232751 60 293 2.0 3.0 0.00 0.16 0.16 39 1012.4
20260507232248 60 293 2.0 3.0 0.00 0.16 0.16 39 1012.4
20260507231744 60 6 3.0 4.0 0.00 0.16 0.16 39 1012.5
20260507231241 61 325 2.0 3.0 0.00 0.16 0.16 39 1012.4
20260507230738 61 275 1.0 1.0 0.00 0.16 0.16 39 1012.5
20260507230235 62 314 1.0 2.0 0.00 0.16 0.16 38 1012.4
20260507225735 62 266 2.0 2.0 0.00 0.16 0.16 37 1012.3
20260507225231 62 13 5.0 8.0 0.00 0.16 0.16 36 1012.3
20260507224727 63 323 2.0 3.0 0.00 0.16 0.16 38 1012.2
20260507224224 63 181 1.0 1.0 0.00 0.16 0.16 38 1012.3
20260507223720 63 344 7.0 9.0 0.00 0.16 0.16 36 1012.1
20260507223217 63 327 2.0 4.0 0.00 0.16 0.16 37 1012.2
20260507222714 63 243 2.0 2.0 0.00 0.16 0.16 38 1012.2
20260507222210 63 328 3.0 4.0 0.00 0.16 0.16 36 1012.1
20260507221707 63 188 5.0 8.0 0.00 0.16 0.16 36 1012.3
20260507221203 63 26 3.0 3.0 0.00 0.16 0.16 38 1012.4
20260507220700 63 356 6.0 10.0 0.00 0.16 0.16 37 1012.2
20260507220158 63 276 3.0 3.0 0.00 0.16 0.16 37 1012.3
20260507215654 63 289 1.0 1.0 0.00 0.16 0.16 37 1012.4
20260507215152 64 339 5.0 6.0 0.00 0.16 0.16 36 1012.3
20260507214649 64 200 2.0 3.0 0.00 0.16 0.16 36 1012.2
20260507214145 64 255 1.0 1.0 0.00 0.16 0.16 38 1012.1
20260507213641 64 303 2.0 3.0 0.00 0.16 0.16 37 1012.0
20260507213139 64 1 2.0 3.0 0.00 0.16 0.16 37 1012.1
20260507212634 64 30 4.0 6.0 0.00 0.16 0.16 35 1012.0
20260507212131 64 190 1.0 2.0 0.00 0.16 0.16 38 1011.9
20260507211628 64 12 4.0 6.0 0.00 0.16 0.16 36 1012.0
20260507211124 64 42 2.0 3.0 0.00 0.16 0.16 38 1011.9
20260507210622 65 342 5.0 6.0 0.00 0.16 0.16 37 1011.9
20260507210118 64 355 5.0 7.0 0.00 0.16 0.16 36 1012.0
20260507205615 65 252 5.0 9.0 0.00 0.16 0.16 36 1012.0
20260507205111 64 343 1.0 2.0 0.00 0.16 0.16 38 1012.0
20260507204608 65 16 3.0 6.0 0.00 0.16 0.16 37 1011.9
20260507204105 65 235 1.0 1.0 0.00 0.16 0.16 38 1011.8
20260507203603 65 344 4.0 6.0 0.00 0.16 0.16 37 1012.0
20260507203100 64 8 2.0 2.0 0.00 0.16 0.16 39 1011.9
20260507202556 64 253 6.0 7.0 0.00 0.16 0.16 38 1012.0
20260507202052 64 232 5.0 8.0 0.00 0.16 0.16 37 1011.9
20260507201547 65 303 2.0 3.0 0.00 0.16 0.16 38 1011.9
20260507201044 63 322 2.0 3.0 0.00 0.16 0.16 37 1011.9
20260507200540 64 1 4.0 6.0 0.00 0.16 0.16 37 1012.1
20260507200036 64 225 1.0 2.0 0.00 0.16 0.16 37 1011.9
20260507195534 64 78 4.0 6.0 0.00 0.16 0.16 36 1012.0
20260507195031 64 14 4.0 4.0 0.00 0.16 0.16 36 1012.0
20260507194527 65 334 5.0 8.0 0.00 0.16 0.16 35 1012.2
20260507194023 64 302 3.0 4.0 0.00 0.16 0.16 37 1012.2
20260507193520 64 339 4.0 4.0 0.00 0.16 0.16 37 1012.1
20260507193018 64 200 3.0 3.0 0.00 0.16 0.16 39 1012.1
20260507192513 63 279 2.0 3.0 0.00 0.16 0.16 38 1012.3
20260507192011 64 332 5.0 7.0 0.00 0.16 0.16 37 1012.3
20260507191506 63 258 5.0 7.0 0.00 0.16 0.16 38 1012.7
20260507191003 63 334 4.0 8.0 0.00 0.16 0.16 37 1012.6
20260507190500 64 106 2.0 3.0 0.00 0.16 0.16 39 1012.7
20260507185959 64 293 2.0 3.0 0.00 0.16 0.16 38 1012.6
20260507185456 63 320 6.0 8.0 0.00 0.16 0.16 39 1012.6
20260507184953 63 280 5.0 8.0 0.00 0.16 0.16 37 1012.8
20260507184451 63 230 2.0 3.0 0.00 0.16 0.16 37 1013.0
20260507183949 63 259 2.0 3.0 0.00 0.16 0.16 40 1012.7
20260507183445 64 21 3.0 4.0 0.00 0.16 0.16 40 1013.0
20260507182942 63 226 2.0 3.0 0.00 0.16 0.16 39 1013.0
20260507182438 63 190 1.0 1.0 0.00 0.16 0.16 40 1013.2
20260507181934 62 223 1.0 1.0 0.00 0.16 0.16 42 1013.0
20260507181430 63 324 5.0 6.0 0.00 0.16 0.16 38 1013.0
20260507180927 62 210 2.0 3.0 0.00 0.16 0.16 38 1013.2
20260507180424 62 7 1.0 1.0 0.00 0.16 0.16 40 1013.2
20260507175920 62 289 5.0 6.0 0.00 0.16 0.16 39 1013.3
20260507175417 63 224 3.0 4.0 0.00 0.16 0.16 40 1013.3
20260507174915 62 292 2.0 3.0 0.00 0.16 0.16 39 1013.4
20260507174412 61 92 1.0 1.0 0.00 0.16 0.16 44 1013.4
20260507173909 61 317 5.0 7.0 0.00 0.16 0.16 39 1013.5
20260507173406 62 202 6.0 8.0 0.00 0.16 0.16 40 1013.5
20260507172903 61 88 4.0 4.0 0.00 0.16 0.16 39 1013.6
20260507172359 61 348 2.0 4.0 0.00 0.16 0.16 40 1013.6
20260507171855 62 310 4.0 4.0 0.00 0.16 0.16 39 1013.8
20260507171352 61 313 2.0 3.0 0.00 0.16 0.16 41 1013.9
20260507170849 61 222 1.0 2.0 0.00 0.16 0.16 37 1013.9
20260507170346 61 357 4.0 6.0 0.00 0.16 0.16 39 1014.0
20260507165842 61 102 1.0 2.0 0.00 0.16 0.16 44 1014.2
20260507165337 60 355 5.0 7.0 0.00 0.16 0.16 41 1014.1
20260507164834 61 86 3.0 4.0 0.00 0.16 0.16 43 1014.1
20260507164331 61 227 4.0 9.0 0.00 0.16 0.16 43 1014.1
20260507163828 60 302 2.0 3.0 0.00 0.16 0.16 45 1014.3
20260507163326 60 281 3.0 3.0 0.00 0.16 0.16 45 1014.3
20260507162822 60 184 0.0 0.0 0.00 0.16 0.16 46 1014.3
20260507162317 60 307 6.0 10.0 0.00 0.16 0.16 45 1014.6
20260507161815 59 8 3.0 4.0 0.00 0.16 0.16 43 1014.6
20260507161311 59 10 2.0 2.0 0.00 0.16 0.16 50 1014.7
20260507160808 59 334 3.0 4.0 0.00 0.16 0.16 47 1014.7
20260507160304 60 324 4.0 6.0 0.00 0.16 0.16 44 1014.7
20260507155800 59 127 0.0 0.0 0.00 0.16 0.16 49 1014.9
20260507155256 59 324 6.0 9.0 0.00 0.16 0.16 45 1014.7
20260507154753 60 228 2.0 3.0 0.00 0.16 0.16 43 1014.8
20260507154250 59 226 1.0 1.0 0.00 0.16 0.16 46 1014.9
20260507153747 59 306 5.0 6.0 0.00 0.16 0.16 48 1014.8
20260507153243 59 323 2.0 2.0 0.00 0.16 0.16 53 1015.0
20260507152740 59 195 1.0 1.0 0.00 0.16 0.16 50 1015.0
20260507152236 59 187 1.0 2.0 0.00 0.16 0.16 53 1015.1
20260507151732 59 168 3.0 6.0 0.00 0.16 0.16 53 1015.0
20260507151229 59 254 1.0 1.0 0.00 0.16 0.16 51 1014.9
20260507150726 59 57 3.0 3.0 0.00 0.16 0.16 55 1015.1
20260507150223 58 148 4.0 7.0 0.00 0.16 0.16 53 1015.2
20260507145718 59 319 1.0 2.0 0.00 0.16 0.16 57 1015.3
20260507145215 58 137 1.0 1.0 0.00 0.16 0.16 60 1015.2
20260507144712 58 55 3.0 4.0 0.00 0.16 0.16 57 1015.1
20260507144210 58 82 2.0 3.0 0.00 0.16 0.16 61 1015.0
20260507143706 58 155 1.0 2.0 0.00 0.16 0.16 63 1015.2
20260507143203 56 327 2.0 2.0 0.00 0.16 0.16 64 1015.3
20260507142659 57 103 2.0 2.0 0.00 0.16 0.16 65 1015.2
20260507142156 57 23 2.0 3.0 0.00 0.16 0.16 66 1015.2
20260507141652 57 110 2.0 3.0 0.00 0.16 0.16 67 1015.2
20260507141149 57 108 2.0 3.0 0.00 0.16 0.16 66 1015.2
20260507140646 56 347 4.0 4.0 0.00 0.16 0.16 68 1015.2
20260507140143 55 174 2.0 3.0 0.00 0.16 0.16 68 1015.2
20260507135640 55 325 6.0 8.0 0.00 0.16 0.16 69 1015.2
20260507135137 55 311 3.0 4.0 0.00 0.16 0.16 72 1015.2
20260507134633 54 344 2.0 3.0 0.00 0.16 0.16 74 1015.4
20260507134130 54 258 2.0 2.0 0.00 0.16 0.16 73 1015.3
20260507133626 55 278 2.0 2.0 0.00 0.16 0.16 74 1015.4
20260507133123 56 124 0.0 1.0 0.00 0.16 0.16 73 1015.3
20260507132620 55 280 2.0 3.0 0.00 0.16 0.16 78 1015.3
20260507132116 53 275 1.0 2.0 0.00 0.16 0.16 78 1015.3
20260507131613 54 316 3.0 3.0 0.00 0.16 0.16 78 1015.2
20260507131111 54 318 2.0 2.0 0.00 0.16 0.16 78 1015.1
20260507130608 54 305 1.0 1.0 0.00 0.16 0.16 79 1015.2
20260507130106 54 165 1.0 2.0 0.00 0.16 0.16 82 1015.1
20260507125604 53 330 2.0 2.0 0.00 0.16 0.16 82 1015.2
20260507125101 53 191 1.0 2.0 0.00 0.16 0.16 82 1015.4
20260507124557 52 156 0.0 0.0 0.00 0.16 0.16 84 1015.4
20260507124055 52 266 0.0 1.0 0.00 0.16 0.16 87 1015.3
20260507123553 51 181 1.0 1.0 0.00 0.16 0.16 87 1015.2
20260507123050 50 335 3.0 3.0 0.00 0.16 0.16 87 1015.2
20260507122545 50 168 1.0 1.0 0.00 0.16 0.16 87 1015.2
20260507122041 50 210 1.0 1.0 0.00 0.16 0.16 88 1015.5
20260507121537 50 154 0.0 0.0 0.00 0.16 0.16 89 1015.4
20260507121033 50 229 2.0 2.0 0.00 0.16 0.16 89 1015.4
20260507120529 50 189 0.0 0.0 0.00 0.16 0.16 89 1015.0
20260507120026 50 189 1.0 1.0 0.00 0.16 0.16 90 1015.1
20260507115522 50 262 1.0 2.0 0.00 0.16 0.16 90 1015.2
20260507115018 50 198 0.0 0.0 0.00 0.16 0.16 90 1015.0
20260507114515 50 191 0.0 0.0 0.00 0.16 0.16 90 1015.0
20260507114012 50 166 0.0 0.0 0.00 0.16 0.16 90 1014.9
20260507113509 50 187 0.0 0.0 0.00 0.16 0.16 90 1014.8
20260507113006 49 191 0.0 0.0 0.00 0.16 0.16 91 1014.7
20260507112504 50 153 0.0 0.0 0.00 0.16 0.16 91 1014.7
20260507112000 49 180 0.0 0.0 0.00 0.16 0.16 90 1014.8
20260507111459 49 198 0.0 0.0 0.00 0.16 0.16 90 1014.8
20260507110954 49 174 0.0 0.0 0.00 0.16 0.16 90 1014.8
20260507110450 49 184 0.0 0.0 0.00 0.16 0.16 90 1014.7
20260507105947 49 180 0.0 0.0 0.00 0.16 0.16 91 1014.6
20260507105444 49 184 0.0 0.0 0.00 0.16 0.16 90 1014.5
20260507104940 49 187 0.0 0.0 0.00 0.16 0.16 90 1014.4
20260507104438 49 195 0.0 0.0 0.00 0.16 0.16 90 1014.5
20260507103933 49 196 0.0 0.0 0.00 0.16 0.16 91 1014.4
20260507103430 49 186 0.0 0.0 0.00 0.16 0.16 91 1014.2
20260507102926 49 208 1.0 1.0 0.00 0.16 0.16 91 1014.2
20260507102423 49 201 0.0 0.0 0.00 0.16 0.16 91 1014.1
20260507101919 49 201 2.0 2.0 0.00 0.16 0.16 91 1013.9
20260507101414 49 256 1.0 1.0 0.00 0.16 0.16 92 1013.7
20260507100911 49 299 2.0 3.0 0.00 0.16 0.16 92 1013.8
20260507100409 49 115 1.0 2.0 0.00 0.16 0.16 92 1013.6
20260507095907 49 280 2.0 2.0 0.00 0.16 0.16 92 1013.6
20260507095403 49 26 1.0 1.0 0.00 0.16 0.16 92 1013.8
20260507094901 49 252 1.0 3.0 0.00 0.16 0.16 92 1013.9
20260507094357 49 187 0.0 0.0 0.00 0.16 0.16 93 1013.9
20260507093854 49 311 0.0 1.0 0.00 0.16 0.16 93 1013.8
20260507093352 49 266 0.0 1.0 0.00 0.16 0.16 93 1013.7
20260507092850 49 259 1.0 1.0 0.00 0.16 0.16 93 1013.9
20260507092346 50 167 1.0 1.0 0.00 0.16 0.16 93 1013.5
20260507091843 50 231 1.0 1.0 0.07 0.16 0.16 93 1013.6
20260507091339 50 200 0.0 1.0 0.07 0.16 0.16 93 1013.7
20260507090835 50 176 0.0 0.0 0.00 0.15 0.15 93 1013.7
20260507090331 50 237 1.0 2.0 0.07 0.15 0.15 93 1013.4
20260507085829 50 301 0.0 1.0 0.07 0.15 0.15 93 1013.5
20260507085325 50 99 1.0 1.0 0.00 0.14 0.14 93 1013.5
20260507084823 50 319 5.0 7.0 0.05 0.14 0.14 93 1013.4
20260507084319 50 280 1.0 1.0 0.05 0.14 0.14 93 1013.6
20260507083817 50 298 2.0 2.0 0.00 0.13 0.13 93 1013.2
20260507083313 50 274 1.0 4.0 0.00 0.13 0.13 93 1013.6
20260507082809 50 246 1.0 1.0 0.07 0.13 0.13 93 1013.4
20260507082306 50 187 0.0 0.0 0.12 0.13 0.13 93 1013.6
20260507081802 50 219 2.0 2.0 0.05 0.12 0.12 93 1013.8
20260507081258 50 237 1.0 1.0 0.00 0.11 0.11 92 1013.9
20260507080755 50 231 2.0 3.0 0.00 0.11 0.11 93 1013.7
20260507080251 50 206 1.0 1.0 0.00 0.11 0.11 92 1013.9
20260507075746 51 344 3.0 3.0 0.00 0.11 0.11 92 1013.5
20260507075243 51 217 1.0 1.0 0.07 0.11 0.11 92 1013.8
20260507074739 51 21 2.0 2.0 0.07 0.11 0.11 92 1013.5
20260507074238 51 13 1.0 1.0 0.05 0.10 0.10 92 1013.5
20260507073734 51 348 2.0 2.0 0.05 0.10 0.10 92 1013.9
20260507073230 51 276 2.0 2.0 0.07 0.09 0.09 92 1013.7
20260507072728 51 278 3.0 3.0 0.07 0.09 0.09 92 1013.9
20260507072225 51 215 1.0 1.0 0.00 0.08 0.08 92 1013.8
20260507071723 51 107 1.0 2.0 0.00 0.08 0.08 92 1013.2
20260507071219 51 226 1.0 1.0 0.05 0.08 0.08 91 1013.5
20260507070716 51 299 2.0 3.0 0.05 0.08 0.08 91 1013.3
20260507070213 51 67 0.0 1.0 0.00 0.07 0.07 91 1013.4
20260507065709 52 219 2.0 2.0 0.00 0.07 0.07 91 1013.6
20260507065206 52 315 2.0 2.0 0.00 0.07 0.07 91 1013.7
20260507064704 52 293 1.0 1.0 0.00 0.07 0.07 91 1013.3
20260507064203 52 179 0.0 0.0 0.07 0.07 0.07 91 1013.1
20260507063700 53 190 0.0 0.0 0.07 0.07 0.07 91 1013.4
20260507063156 53 243 1.0 1.0 0.05 0.06 0.06 91 1013.0
20260507062653 53 167 0.0 0.0 0.12 0.06 0.06 90 1012.6
20260507062151 53 177 0.0 0.0 0.07 0.05 0.05 90 1013.0
20260507061648 53 197 0.0 0.0 0.00 0.04 0.04 89 1013.4
20260507061146 53 178 0.0 0.0 0.07 0.04 0.04 89 1013.0
20260507060643 53 265 2.0 3.0 0.12 0.04 0.04 88 1013.5
20260507060140 54 215 1.0 1.0 0.19 0.04 0.04 87 1013.3
20260507055635 54 342 2.0 2.0 0.07 0.02 0.02 86 1012.9
20260507055131 54 182 2.0 2.0 0.00 0.01 0.01 85 1013.5
20260507052201 55 209 2.0 2.0 0.00 0.00 0.00 85 1012.9
20260507051700 55 209 2.0 2.0 0.00 0.00 0.00 85 1012.9
20260507051155 55 178 0.0 1.0 0.00 0.00 0.00 85 1013.1
20260507050652 56 257 1.0 1.0 0.00 0.00 0.00 85 1013.1
20260507050149 56 34 2.0 3.0 0.00 0.00 0.00 85 1012.6
20260507045646 56 185 1.0 1.0 0.00 0.00 0.00 85 1012.8
20260507045143 56 92 2.0 3.0 0.00 0.00 0.00 84 1012.8
20260507044640 56 158 0.0 0.0 0.00 0.00 0.00 84 1012.8
20260507044136 56 205 0.0 0.0 0.00 0.00 0.00 85 1012.9
20260507043633 56 229 1.0 1.0 0.00 0.00 0.00 84 1013.0
20260507043125 56 342 3.0 4.0 0.00 0.00 0.00 84 1012.9
20260507042621 56 335 2.0 3.0 0.00 0.00 0.00 84 1013.0
20260507042116 56 277 1.0 2.0 0.00 0.00 0.00 84 1013.0
20260507041613 56 311 3.0 3.0 0.00 0.00 0.00 84 1012.9
20260507041109 56 183 0.0 0.0 0.00 0.00 0.00 84 1013.1
20260507040606 56 185 1.0 1.0 0.00 0.00 0.00 84 1012.9
20260507035558 56 188 0.0 0.0 0.00 0.15 0.15 85 1012.7
20260507035055 56 327 3.0 4.0 0.00 0.15 0.15 87 1012.8
20260507034551 56 262 1.0 1.0 0.00 0.15 0.15 88 1012.7
20260507034049 56 179 0.0 1.0 0.00 0.15 0.15 89 1012.5
20260507033548 56 198 0.0 0.0 0.00 0.15 0.15 89 1012.6
20260507033044 56 22 3.0 3.0 0.00 0.15 0.15 89 1012.4
20260507032541 56 185 1.0 1.0 0.00 0.15 0.15 89 1012.5
20260507032038 56 324 2.0 2.0 0.00 0.15 0.15 89 1012.5
20260507031534 56 228 1.0 1.0 0.00 0.15 0.15 89 1012.8
20260507031031 56 195 1.0 1.0 0.00 0.15 0.15 89 1012.6
20260507030528 57 239 0.0 1.0 0.00 0.15 0.15 89 1012.8
20260507030026 57 278 1.0 2.0 0.00 0.15 0.15 89 1012.9
20260507025522 57 200 1.0 1.0 0.00 0.15 0.15 89 1013.0
20260507025020 57 192 0.0 0.0 0.00 0.15 0.15 89 1013.0
20260507024518 57 239 1.0 1.0 0.00 0.15 0.15 89 1013.1
20260507024014 57 176 2.0 3.0 0.00 0.15 0.15 90 1013.1
20260507023510 57 267 2.0 2.0 0.00 0.15 0.15 91 1013.1
20260507023008 57 213 0.0 1.0 0.07 0.15 0.15 91 1013.0
20260507022504 58 329 2.0 3.0 0.12 0.15 0.15 92 1013.1
20260507022000 59 243 2.0 2.0 0.05 0.14 0.14 93 1012.8
20260507021455 60 179 1.0 1.0 0.12 0.13 0.13 93 1013.0
20260507020952 60 183 0.0 1.0 0.24 0.13 0.13 93 1012.9
20260507020449 60 187 2.0 2.0 0.24 0.12 0.12 93 1012.8
20260507015947 59 197 2.0 2.0 0.12 0.10 0.10 93 1012.7
20260507015445 59 204 0.0 0.0 0.05 0.08 0.08 93 1012.3
20260507014942 59 204 0.0 0.0 0.05 0.08 0.08 93 1012.4
20260507014438 59 204 0.0 0.0 0.05 0.08 0.08 93 1012.4
20260507013934 59 204 0.0 0.0 0.00 0.07 0.07 93 1012.3
20260507013431 59 204 0.0 0.0 0.00 0.07 0.07 93 1012.4
20260507012929 59 203 0.0 0.0 0.00 0.07 0.07 93 1012.3
20260507012426 59 207 0.0 0.0 0.00 0.07 0.07 92 1012.4
20260507011922 59 194 0.0 0.0 0.00 0.07 0.07 93 1012.1
20260507011420 59 190 0.0 0.0 0.00 0.07 0.07 92 1012.3
20260507010914 59 176 0.0 0.0 0.00 0.07 0.07 92 1012.3
20260507010409 59 193 0.0 0.0 0.00 0.07 0.07 92 1012.3
20260507005907 59 198 0.0 0.0 0.00 0.07 0.07 92 1012.3
20260507005404 59 165 0.0 0.0 0.00 0.07 0.07 92 1012.5
20260507004900 59 165 0.0 0.0 0.00 0.07 0.07 92 1012.5
20260507004357 58 167 0.0 0.0 0.00 0.07 0.07 92 1012.1
20260507003854 58 186 0.0 0.0 0.00 0.07 0.07 92 1012.2
20260507003350 59 192 0.0 0.0 0.00 0.07 0.07 92 1012.0
20260507002845 59 174 0.0 0.0 0.00 0.07 0.07 92 1012.1
20260507002341 59 185 0.0 0.0 0.00 0.07 0.07 92 1012.1
20260507001839 59 197 1.0 1.0 0.00 0.07 0.07 92 1012.1
20260507001335 59 178 0.0 0.0 0.00 0.07 0.07 92 1012.0
20260507000832 59 183 0.0 0.0 0.00 0.07 0.07 92 1012.0
20260507000328 59 170 1.0 1.0 0.00 0.07 0.07 92 1011.9